This is the latest recevied weather packets stored in our database for station/object SPDRWX. If no packets are shown the sender has not sent any weather packets the latest 10 day(s).
| Time | Temp. | Humidity | Pressure | Rain* | Wind** | Luminosity | Snow |
|---|---|---|---|---|---|---|---|
| 1777859106 | 6.11° C | 65% | 1008.9 hPa | 6.35 mm | - | - | - |
| 1777857799 | 6.11° C | 66% | 1009.2 hPa | 6.35 mm | - | - | - |
| 1777856295 | 5.56° C | 66% | 1009.4 hPa | 6.35 mm | - | - | - |
| 1777855990 | 5.56° C | 66% | 1009.3 hPa | 6.35 mm | - | - | - |
| 1777855390 | 5.56° C | 66% | 1009.3 hPa | 6.35 mm | - | - | - |
| 1777848536 | 5.56° C | 63% | 1010.4 hPa | 6.35 mm | - | - | - |
| 1777847936 | 5.56° C | 63% | 1010.7 hPa | 6.35 mm | - | - | - |
| 1777847632 | 5.56° C | 62% | 1010.8 hPa | 6.35 mm | - | - | - |
| 1777847333 | 6.11° C | 62% | 1011 hPa | 6.35 mm | - | - | - |
| 1777846128 | 6.67° C | 59% | 1011.1 hPa | 6.35 mm | - | - | - |
| 1777846010 | 6.67° C | 59% | 1010.7 hPa | 6.35 mm | - | - | - |
| 1777845339 | 6.67° C | 59% | 1010.9 hPa | 6.1 mm | - | - | - |
| 1777843834 | 7.22° C | 57% | 1010.3 hPa | 4.83 mm | - | - | - |
| 1777843166 | 7.22° C | 55% | 1009.9 hPa | 4.06 mm | - | - | - |
| 1777842310 | 7.22° C | 55% | 1010.5 hPa | 3.3 mm | - | - | - |
| 1777841761 | 7.78° C | 55% | 1010.5 hPa | 2.79 mm | - | - | - |
| 1777841245 | 8.33° C | 53% | 1010.3 hPa | 2.03 mm | - | - | - |
| 1777840948 | 8.89° C | 51% | 1010.3 hPa | 1.78 mm | - | - | - |
| 1777840342 | 9.44° C | 48% | 1010 hPa | 1.52 mm | - | - | - |
| 1777840040 | 10° C | 48% | 1010 hPa | 1.02 mm | - | - | - |
| 1777839741 | 10.56° C | 46% | 1009.8 hPa | 0.76 mm | - | - | - |
| 1777839440 | 10.56° C | 45% | 1010 hPa | 0.76 mm | - | - | - |
| 1777838538 | 11.67° C | 44% | 1009.6 hPa | 0 mm | - | - | - |
| 1777838370 | 12.22° C | 43% | 1009.3 hPa | 0 mm | - | - | - |
| 1777838267 | 12.22° C | 43% | 1009.2 hPa | 0 mm | - | - | - |
* Rain since midnight (hover to see other rain measurements)
** Current wind speed in m/s (hover to see current wind gust speed)